| time (UTC) | temp F | wind direction | speed MPH | gust MPH | rain 1hr in | rain 24hr in | rain mn in | humidity % | barometer mb |
| 20260508153506 | 61 | 171 | 0.0 | 2.0 | 0.00 | 0.02 | 0.00 | 52 | 1010.4 |
| 20260508153006 | 60 | 165 | 0.0 | 2.0 | 0.00 | 0.02 | 0.00 | 57 | 1010.4 |
| 20260508152506 | 60 | 165 | 0.0 | 3.0 | 0.00 | 0.02 | 0.00 | 55 | 1010.4 |
| 20260508152005 | 60 | 165 | 0.0 | 3.0 | 0.00 | 0.02 | 0.00 | 52 | 1010.5 |
| 20260508151504 | 59 | 153 | 0.0 | 3.0 | 0.00 | 0.02 | 0.00 | 55 | 1010.5 |
| 20260508151005 | 59 | 134 | 0.0 | 1.0 | 0.00 | 0.02 | 0.00 | 55 | 1010.5 |
| 20260508150505 | 59 | 128 | 0.0 | 2.0 | 0.00 | 0.02 | 0.00 | 55 | 1010.6 |
| 20260508150007 | 59 | 127 | 0.0 | 2.0 | 0.00 | 0.02 | 0.00 | 55 | 1010.6 |
| 20260508145505 | 58 | 93 | 0.0 | 1.0 | 0.00 | 0.02 | 0.00 | 58 | 1010.6 |
| 20260508145006 | 57 | 93 | 0.0 | 1.0 | 0.00 | 0.02 | 0.00 | 62 | 1010.7 |
| 20260508144007 | 56 | 96 | 0.0 | 1.0 | 0.00 | 0.02 | 0.00 | 67 | 1010.7 |
| 20260508143006 | 55 | 95 | 0.0 | 0.0 | 0.00 | 0.02 | 0.00 | 70 | 1010.7 |
| 20260508142505 | 55 | 95 | 0.0 | 2.0 | 0.00 | 0.02 | 0.00 | 69 | 1010.8 |
| 20260508142005 | 54 | 95 | 0.0 | 2.0 | 0.00 | 0.02 | 0.00 | 71 | 1010.9 |
| 20260508141507 | 54 | 81 | 0.0 | 2.0 | 0.00 | 0.02 | 0.00 | 70 | 1010.9 |
| 20260508141005 | 54 | 80 | 0.0 | 0.0 | 0.00 | 0.02 | 0.00 | 71 | 1010.9 |
| 20260508140505 | 54 | 80 | 0.0 | 1.0 | 0.00 | 0.02 | 0.00 | 73 | 1010.9 |
| 20260508140009 | 53 | 80 | 0.0 | 1.0 | 0.00 | 0.02 | 0.00 | 73 | 1010.8 |
| 20260508135505 | 53 | 80 | 0.0 | 1.0 | 0.00 | 0.02 | 0.00 | 74 | 1010.7 |
| 20260508135005 | 52 | 80 | 0.0 | 0.0 | 0.00 | 0.02 | 0.00 | 77 | 1010.8 |
| 20260508134505 | 51 | 80 | 0.0 | 1.0 | 0.00 | 0.02 | 0.00 | 78 | 1010.7 |
| 20260508134005 | 51 | 80 | 0.0 | 1.0 | 0.00 | 0.02 | 0.00 | 80 | 1010.7 |
| 20260508133504 | 50 | 80 | 0.0 | 0.0 | 0.00 | 0.02 | 0.00 | 81 | 1010.7 |
| 20260508133007 | 49 | 80 | 0.0 | 0.0 | 0.00 | 0.02 | 0.00 | 82 | 1010.6 |
| 20260508132501 | 49 | 80 | 0.0 | 0.0 | 0.00 | 0.02 | 0.00 | 83 | 1010.6 |
| 20260508132004 | 48 | 80 | 0.0 | 0.0 | 0.00 | 0.02 | 0.00 | 83 | 1010.7 |
| 20260508131505 | 48 | 80 | 0.0 | 0.0 | 0.00 | 0.02 | 0.00 | 85 | 1010.7 |
| 20260508131005 | 47 | 80 | 0.0 | 0.0 | 0.00 | 0.02 | 0.00 | 86 | 1010.7 |
| 20260508130504 | 47 | 80 | 0.0 | 1.0 | 0.00 | 0.02 | 0.00 | 85 | 1010.8 |
| 20260508130008 | 47 | 80 | 0.0 | 1.0 | 0.00 | 0.02 | 0.00 | 86 | 1010.8 |
| 20260508125505 | 46 | 80 | 0.0 | 1.0 | 0.00 | 0.02 | 0.00 | 86 | 1010.9 |
| 20260508125006 | 46 | 80 | 0.0 | 1.0 | 0.00 | 0.02 | 0.00 | 87 | 1010.6 |
| 20260508124505 | 45 | 218 | 0.0 | 0.0 | 0.00 | 0.02 | 0.00 | 88 | 1010.8 |
| 20260508122505 | 0 | 218 | 0.0 | 0.0 | 0.00 | 0.02 | 0.00 | 1010.9 | |
| 20260508121505 | 0 | 218 | 0.0 | 2.0 | 0.00 | 0.02 | 0.00 | 1010.7 | |
| 20260508121007 | 0 | 218 | 0.0 | 0.0 | 0.00 | 0.02 | 0.00 | 1010.7 | |
| 20260508120504 | 0 | 218 | 0.0 | 0.0 | 0.00 | 0.02 | 0.00 | 1010.7 | |
| 20260508120006 | 43 | 218 | 0.0 | 0.0 | 0.00 | 0.02 | 0.00 | 92 | 1010.9 |
| 20260508115506 | 43 | 218 | 0.0 | 0.0 | 0.00 | 0.02 | 0.00 | 92 | 1011.0 |
| 20260508115007 | 42 | 218 | 0.0 | 0.0 | 0.00 | 0.02 | 0.00 | 92 | 1011.0 |
| 20260508114505 | 42 | 218 | 0.0 | 0.0 | 0.00 | 0.02 | 0.00 | 92 | 1010.9 |
| 20260508113507 | 42 | 218 | 0.0 | 0.0 | 0.00 | 0.02 | 0.00 | 92 | 1010.9 |
| 20260508113009 | 41 | 218 | 0.0 | 0.0 | 0.00 | 0.02 | 0.00 | 92 | 1010.6 |
| 20260508112005 | 41 | 218 | 0.0 | 0.0 | 0.00 | 0.02 | 0.00 | 92 | 1010.6 |
| 20260508111505 | 41 | 218 | 0.0 | 0.0 | 0.00 | 0.02 | 0.00 | 92 | 1010.6 |
| 20260508110506 | 40 | 218 | 0.0 | 0.0 | 0.00 | 0.02 | 0.00 | 92 | 1010.4 |
| 20260508110007 | 40 | 218 | 0.0 | 0.0 | 0.00 | 0.02 | 0.00 | 91 | 1010.5 |
| 20260508105505 | 40 | 218 | 0.0 | 0.0 | 0.00 | 0.02 | 0.00 | 91 | 1010.5 |
| 20260508105005 | 40 | 218 | 0.0 | 0.0 | 0.00 | 0.02 | 0.00 | 91 | 1010.5 |
| 20260508104505 | 39 | 218 | 0.0 | 0.0 | 0.00 | 0.02 | 0.00 | 91 | 1010.6 |
| 20260508104007 | 39 | 218 | 0.0 | 0.0 | 0.00 | 0.02 | 0.00 | 91 | 1010.6 |
| 20260508103505 | 39 | 218 | 0.0 | 0.0 | 0.00 | 0.02 | 0.00 | 91 | 1010.5 |
| 20260508103007 | 39 | 218 | 0.0 | 0.0 | 0.00 | 0.02 | 0.00 | 91 | 1010.4 |
| 20260508102007 | 39 | 218 | 0.0 | 0.0 | 0.00 | 0.02 | 0.00 | 90 | 1010.5 |
| 20260508101505 | 39 | 218 | 0.0 | 0.0 | 0.00 | 0.02 | 0.00 | 90 | 1010.7 |
| 20260508100009 | 39 | 218 | 0.0 | 0.0 | 0.00 | 0.02 | 0.00 | 90 | 1010.4 |
| 20260508095505 | 39 | 218 | 0.0 | 0.0 | 0.00 | 0.02 | 0.00 | 89 | 1010.5 |
| 20260508095005 | 39 | 218 | 0.0 | 0.0 | 0.00 | 0.02 | 0.00 | 89 | 1010.4 |
| 20260508094506 | 39 | 218 | 0.0 | 0.0 | 0.00 | 0.02 | 0.00 | 89 | 1010.4 |
| 20260508094007 | 39 | 218 | 0.0 | 0.0 | 0.00 | 0.02 | 0.00 | 89 | 1010.5 |
| 20260508092505 | 39 | 218 | 0.0 | 0.0 | 0.00 | 0.02 | 0.00 | 89 | 1010.7 |
| 20260508092005 | 39 | 218 | 0.0 | 0.0 | 0.00 | 0.02 | 0.00 | 88 | 1010.6 |
| 20260508091005 | 40 | 218 | 0.0 | 0.0 | 0.00 | 0.02 | 0.00 | 88 | 1010.7 |
| 20260508090505 | 40 | 218 | 0.0 | 0.0 | 0.00 | 0.02 | 0.00 | 88 | 1010.7 |
| 20260508090010 | 40 | 218 | 0.0 | 0.0 | 0.00 | 0.02 | 0.00 | 88 | 1010.7 |
| 20260508085008 | 40 | 218 | 0.0 | 0.0 | 0.00 | 0.02 | 0.00 | 88 | 1010.8 |
| 20260508084506 | 41 | 218 | 0.0 | 0.0 | 0.00 | 0.02 | 0.00 | 88 | 1010.9 |
| 20260508084005 | 41 | 218 | 0.0 | 0.0 | 0.00 | 0.02 | 0.00 | 88 | 1010.9 |
| 20260508083507 | 41 | 218 | 0.0 | 0.0 | 0.00 | 0.02 | 0.00 | 88 | 1011.0 |
| 20260508083005 | 41 | 218 | 0.0 | 0.0 | 0.00 | 0.02 | 0.00 | 88 | 1010.9 |
| 20260508082504 | 41 | 218 | 0.0 | 0.0 | 0.00 | 0.02 | 0.00 | 88 | 1011.0 |
| 20260508082005 | 41 | 218 | 0.0 | 0.0 | 0.00 | 0.02 | 0.00 | 88 | 1011.0 |
| 20260508081505 | 41 | 218 | 0.0 | 0.0 | 0.00 | 0.02 | 0.00 | 88 | 1011.1 |
| 20260508081005 | 41 | 218 | 0.0 | 1.0 | 0.00 | 0.02 | 0.00 | 88 | 1011.0 |
| 20260508080504 | 41 | 218 | 0.0 | 2.0 | 0.00 | 0.02 | 0.00 | 87 | 1011.1 |
| 20260508080008 | 41 | 218 | 0.0 | 2.0 | 0.00 | 0.02 | 0.00 | 87 | 1011.1 |
| 20260508075506 | 41 | 218 | 0.0 | 0.0 | 0.00 | 0.02 | 0.00 | 87 | 1011.1 |
| 20260508075005 | 41 | 218 | 0.0 | 0.0 | 0.00 | 0.02 | 0.00 | 86 | 1011.2 |
| 20260508074505 | 41 | 218 | 0.0 | 0.0 | 0.00 | 0.02 | 0.00 | 86 | 1011.3 |
| 20260508074008 | 41 | 218 | 0.0 | 0.0 | 0.00 | 0.02 | 0.00 | 86 | 1011.3 |
| 20260508073505 | 42 | 218 | 0.0 | 0.0 | 0.00 | 0.02 | 0.00 | 85 | 1011.3 |
| 20260508073009 | 42 | 218 | 0.0 | 0.0 | 0.00 | 0.02 | 0.00 | 85 | 1011.3 |
| 20260508072506 | 42 | 218 | 0.0 | 0.0 | 0.00 | 0.02 | 0.00 | 85 | 1011.4 |
| 20260508072011 | 42 | 218 | 0.0 | 0.0 | 0.00 | 0.02 | 0.00 | 85 | 1011.4 |
| 20260508071508 | 42 | 218 | 0.0 | 0.0 | 0.00 | 0.02 | 0.00 | 85 | 1011.3 |
| 20260508071005 | 42 | 218 | 0.0 | 0.0 | 0.00 | 0.02 | 0.00 | 84 | 1011.3 |
| 20260508070506 | 43 | 218 | 0.0 | 0.0 | 0.00 | 0.02 | 0.00 | 84 | 1011.4 |
| 20260508070007 | 43 | 218 | 0.0 | 0.0 | 0.00 | 0.02 | 0.00 | 84 | 1011.3 |
| 20260508065004 | 43 | 218 | 0.0 | 0.0 | 0.00 | 0.02 | 0.00 | 84 | 1011.2 |
| 20260508064506 | 43 | 218 | 0.0 | 0.0 | 0.00 | 0.02 | 0.00 | 83 | 1011.2 |
| 20260508064006 | 43 | 218 | 0.0 | 0.0 | 0.00 | 0.02 | 0.00 | 82 | 1011.3 |
| 20260508063506 | 44 | 218 | 0.0 | 0.0 | 0.00 | 0.02 | 0.00 | 82 | 1011.3 |
| 20260508063005 | 44 | 218 | 0.0 | 0.0 | 0.00 | 0.02 | 0.00 | 82 | 1011.2 |
| 20260508062506 | 44 | 218 | 0.0 | 0.0 | 0.00 | 0.02 | 0.00 | 81 | 1011.2 |
| 20260508062008 | 44 | 218 | 0.0 | 0.0 | 0.00 | 0.02 | 0.00 | 81 | 1011.1 |
| 20260508055508 | 45 | 218 | 0.0 | 0.0 | 0.00 | 0.02 | 0.00 | 80 | 1011.2 |
| 20260508054507 | 45 | 218 | 0.0 | 0.0 | 0.00 | 0.02 | 0.00 | 79 | 1011.2 |
| 20260508054006 | 45 | 218 | 0.0 | 0.0 | 0.00 | 0.02 | 0.00 | 79 | 1011.1 |
| 20260508053506 | 45 | 218 | 0.0 | 0.0 | 0.00 | 0.02 | 0.00 | 78 | 1010.9 |
| 20260508053009 | 46 | 218 | 0.0 | 0.0 | 0.00 | 0.02 | 0.00 | 78 | 1011.0 |
| 20260508052505 | 46 | 218 | 0.0 | 0.0 | 0.00 | 0.02 | 0.00 | 78 | 1010.9 |
| 20260508052010 | 46 | 218 | 0.0 | 0.0 | 0.00 | 0.02 | 0.00 | 77 | 1010.9 |
| 20260508051505 | 46 | 218 | 0.0 | 0.0 | 0.00 | 0.02 | 0.00 | 77 | 1011.0 |
| 20260508051007 | 46 | 218 | 0.0 | 0.0 | 0.00 | 0.02 | 0.00 | 77 | 1010.9 |
| 20260508050511 | 46 | 218 | 0.0 | 0.0 | 0.00 | 0.02 | 0.00 | 76 | 1010.9 |
| 20260508045505 | 47 | 218 | 0.0 | 0.0 | 0.00 | 0.02 | 0.02 | 75 | 1011.0 |
| 20260508044507 | 47 | 218 | 0.0 | 0.0 | 0.00 | 0.02 | 0.02 | 75 | 1011.0 |
| 20260508044006 | 47 | 218 | 0.0 | 0.0 | 0.00 | 0.02 | 0.02 | 75 | 1011.0 |
| 20260508043507 | 47 | 218 | 0.0 | 0.0 | 0.00 | 0.02 | 0.02 | 75 | 1010.9 |
| 20260508043006 | 47 | 218 | 0.0 | 0.0 | 0.00 | 0.02 | 0.02 | 75 | 1010.9 |
| 20260508042506 | 47 | 218 | 0.0 | 1.0 | 0.00 | 0.02 | 0.02 | 75 | 1010.9 |
| 20260508041506 | 47 | 218 | 0.0 | 2.0 | 0.00 | 0.02 | 0.02 | 75 | 1010.7 |
| 20260508041007 | 47 | 218 | 0.0 | 2.0 | 0.00 | 0.02 | 0.02 | 76 | 1010.8 |
| 20260508040007 | 46 | 218 | 0.0 | 2.0 | 0.00 | 0.02 | 0.02 | 77 | 1010.6 |
| 20260508035506 | 46 | 218 | 0.0 | 2.0 | 0.00 | 0.02 | 0.02 | 78 | 1010.5 |
| 20260508035007 | 46 | 218 | 0.0 | 0.0 | 0.00 | 0.02 | 0.02 | 78 | 1010.5 |
| 20260508032505 | 46 | 218 | 0.0 | 0.0 | 0.00 | 0.02 | 0.02 | 78 | 1010.2 |
| 20260508031505 | 46 | 218 | 0.0 | 0.0 | 0.00 | 0.02 | 0.02 | 78 | 1010.3 |
| 20260508031007 | 46 | 218 | 0.0 | 0.0 | 0.00 | 0.02 | 0.02 | 78 | 1010.3 |
| 20260508030008 | 47 | 218 | 0.0 | 0.0 | 0.00 | 0.02 | 0.02 | 77 | 1010.3 |
| 20260508025506 | 47 | 218 | 0.0 | 0.0 | 0.00 | 0.02 | 0.02 | 77 | 1010.2 |
| 20260508025005 | 47 | 218 | 0.0 | 0.0 | 0.00 | 0.02 | 0.02 | 76 | 1010.2 |
| 20260508024505 | 47 | 218 | 0.0 | 0.0 | 0.00 | 0.02 | 0.02 | 76 | 1010.1 |
| 20260508024006 | 48 | 218 | 0.0 | 0.0 | 0.00 | 0.02 | 0.02 | 75 | 1010.0 |
| 20260508023505 | 48 | 218 | 0.0 | 0.0 | 0.00 | 0.02 | 0.02 | 74 | 1010.0 |
| 20260508023005 | 48 | 218 | 0.0 | 0.0 | 0.00 | 0.02 | 0.02 | 74 | 1010.1 |
| 20260508022507 | 48 | 218 | 0.0 | 0.0 | 0.00 | 0.02 | 0.02 | 73 | 1010.0 |
| 20260508022008 | 49 | 218 | 0.0 | 0.0 | 0.00 | 0.02 | 0.02 | 74 | 1010.0 |
| 20260508021505 | 49 | 218 | 0.0 | 0.0 | 0.00 | 0.02 | 0.02 | 73 | 1009.9 |
| 20260508021005 | 49 | 218 | 0.0 | 0.0 | 0.00 | 0.02 | 0.02 | 73 | 1009.9 |
| 20260508020009 | 50 | 218 | 0.0 | 0.0 | 0.00 | 0.02 | 0.02 | 72 | 1009.7 |
| 20260508015507 | 50 | 218 | 0.0 | 0.0 | 0.00 | 0.02 | 0.02 | 72 | 1009.6 |
| 20260508015007 | 50 | 218 | 0.0 | 0.0 | 0.00 | 0.02 | 0.02 | 71 | 1009.6 |
| 20260508014506 | 50 | 218 | 0.0 | 0.0 | 0.00 | 0.02 | 0.02 | 71 | 1009.5 |
| 20260508014007 | 50 | 218 | 0.0 | 0.0 | 0.00 | 0.02 | 0.02 | 70 | 1009.3 |
| 20260508013505 | 51 | 218 | 0.0 | 0.0 | 0.00 | 0.02 | 0.02 | 70 | 1009.3 |
| 20260508013008 | 51 | 218 | 0.0 | 0.0 | 0.00 | 0.02 | 0.02 | 69 | 1009.3 |
| 20260508012506 | 51 | 218 | 0.0 | 0.0 | 0.00 | 0.02 | 0.02 | 68 | 1009.3 |
| 20260508012005 | 52 | 218 | 0.0 | 0.0 | 0.00 | 0.02 | 0.02 | 67 | 1009.2 |
| 20260508011506 | 52 | 218 | 0.0 | 0.0 | 0.00 | 0.02 | 0.02 | 65 | 1009.2 |
| 20260508010506 | 53 | 218 | 0.0 | 0.0 | 0.00 | 0.02 | 0.02 | 61 | 1009.2 |
| 20260508010007 | 53 | 218 | 0.0 | 0.0 | 0.00 | 0.02 | 0.02 | 61 | 1009.2 |
| 20260508005505 | 54 | 218 | 0.0 | 0.0 | 0.00 | 0.02 | 0.02 | 61 | 1009.1 |
| 20260508005005 | 54 | 218 | 0.0 | 0.0 | 0.00 | 0.02 | 0.02 | 59 | 1009.2 |
| 20260508004505 | 54 | 218 | 0.0 | 0.0 | 0.00 | 0.02 | 0.02 | 59 | 1009.1 |
| 20260508004008 | 55 | 218 | 0.0 | 0.0 | 0.00 | 0.02 | 0.02 | 59 | 1009.1 |
| 20260508003508 | 55 | 218 | 0.0 | 0.0 | 0.00 | 0.02 | 0.02 | 58 | 1009.1 |
| 20260508003007 | 55 | 218 | 0.0 | 2.0 | 0.00 | 0.02 | 0.02 | 57 | 1009.1 |
| 20260508002506 | 56 | 218 | 0.0 | 2.0 | 0.00 | 0.02 | 0.02 | 57 | 1009.1 |
| 20260508002006 | 56 | 216 | 0.0 | 2.0 | 0.00 | 0.02 | 0.02 | 57 | 1009.1 |
| 20260508001505 | 56 | 216 | 0.0 | 2.0 | 0.00 | 0.02 | 0.02 | 57 | 1009.1 |
| 20260508000505 | 56 | 216 | 0.0 | 3.0 | 0.00 | 0.02 | 0.02 | 59 | 1009.1 |
| 20260508000007 | 56 | 219 | 1.0 | 3.0 | 0.00 | 0.02 | 0.02 | 60 | 1009.1 |
| 20260507235506 | 56 | 219 | 1.0 | 3.0 | 0.00 | 0.02 | 0.02 | 60 | 1009.0 |
| 20260507235005 | 56 | 219 | 1.0 | 3.0 | 0.00 | 0.02 | 0.02 | 59 | 1009.2 |
| 20260507234505 | 56 | 219 | 1.0 | 3.0 | 0.00 | 0.02 | 0.02 | 60 | 1009.0 |
| 20260507234005 | 56 | 219 | 1.0 | 4.0 | 0.00 | 0.02 | 0.02 | 59 | 1009.2 |
| 20260507233507 | 56 | 215 | 1.0 | 4.0 | 0.00 | 0.02 | 0.02 | 61 | 1009.2 |
| 20260507233006 | 56 | 215 | 1.0 | 4.0 | 0.00 | 0.02 | 0.02 | 60 | 1009.3 |
| 20260507232507 | 56 | 242 | 1.0 | 3.0 | 0.00 | 0.02 | 0.02 | 61 | 1009.1 |
| 20260507231506 | 56 | 224 | 1.0 | 4.0 | 0.00 | 0.02 | 0.02 | 59 | 1009.4 |
| 20260507231006 | 56 | 232 | 1.0 | 4.0 | 0.00 | 0.02 | 0.02 | 59 | 1009.4 |
| 20260507230505 | 56 | 261 | 1.0 | 3.0 | 0.00 | 0.02 | 0.02 | 60 | 1009.5 |
| 20260507230011 | 56 | 270 | 1.0 | 4.0 | 0.00 | 0.02 | 0.02 | 61 | 1009.3 |
| 20260507225504 | 57 | 236 | 0.0 | 4.0 | 0.01 | 0.02 | 0.02 | 59 | 1009.4 |
| 20260507225007 | 56 | 267 | 0.0 | 1.0 | 0.01 | 0.02 | 0.02 | 63 | 1009.5 |
| 20260507224505 | 55 | 267 | 0.0 | 1.0 | 0.01 | 0.02 | 0.02 | 65 | 1009.6 |
| 20260507224006 | 55 | 267 | 0.0 | 1.0 | 0.02 | 0.02 | 0.02 | 67 | 1009.7 |
| 20260507223505 | 56 | 267 | 0.0 | 2.0 | 0.02 | 0.02 | 0.02 | 65 | 1009.7 |
| 20260507223006 | 57 | 267 | 0.0 | 2.0 | 0.02 | 0.02 | 0.02 | 63 | 1009.8 |
| 20260507222505 | 57 | 271 | 0.0 | 1.0 | 0.02 | 0.02 | 0.02 | 63 | 1009.7 |
| 20260507222006 | 57 | 271 | 0.0 | 1.0 | 0.02 | 0.02 | 0.02 | 68 | 1009.8 |
| 20260507221506 | 55 | 271 | 0.0 | 1.0 | 0.02 | 0.02 | 0.02 | 76 | 1009.8 |
| 20260507221005 | 53 | 271 | 0.0 | 1.0 | 0.02 | 0.02 | 0.02 | 75 | 1009.8 |
| 20260507220505 | 52 | 271 | 0.0 | 1.0 | 0.02 | 0.02 | 0.02 | 79 | 1009.9 |
| 20260507215505 | 51 | 270 | 1.0 | 5.0 | 0.01 | 0.01 | 0.01 | 77 | 1010.1 |
| 20260507215006 | 51 | 276 | 2.0 | 7.0 | 0.01 | 0.01 | 0.01 | 74 | 1010.4 |
| 20260507214006 | 53 | 312 | 2.0 | 7.0 | 0.00 | 0.00 | 0.00 | 68 | 1010.1 |
| 20260507213506 | 55 | 285 | 2.0 | 7.0 | 0.00 | 0.00 | 0.00 | 61 | 1010.1 |
| 20260507213007 | 55 | 35 | 2.0 | 9.0 | 0.00 | 0.00 | 0.00 | 54 | 1009.8 |
| 20260507212506 | 56 | 279 | 3.0 | 10.0 | 0.00 | 0.00 | 0.00 | 52 | 1009.7 |
| 20260507212007 | 58 | 290 | 3.0 | 11.0 | 0.00 | 0.00 | 0.00 | 48 | 1009.7 |
| 20260507211505 | 58 | 227 | 2.0 | 11.0 | 0.00 | 0.00 | 0.00 | 48 | 1009.5 |
| 20260507211005 | 58 | 167 | 2.0 | 7.0 | 0.00 | 0.00 | 0.00 | 48 | 1009.5 |
| 20260507210505 | 58 | 205 | 3.0 | 13.0 | 0.00 | 0.00 | 0.00 | 49 | 1009.4 |
| 20260507210007 | 58 | 265 | 4.0 | 13.0 | 0.00 | 0.00 | 0.00 | 47 | 1009.3 |
| 20260507205505 | 59 | 273 | 3.0 | 12.0 | 0.00 | 0.00 | 0.00 | 49 | 1009.5 |
| 20260507205005 | 60 | 242 | 3.0 | 12.0 | 0.00 | 0.00 | 0.00 | 49 | 1009.4 |
| 20260507204007 | 62 | 256 | 4.0 | 11.0 | 0.00 | 0.00 | 0.00 | 47 | 1009.5 |
| 20260507203505 | 61 | 217 | 4.0 | 15.0 | 0.00 | 0.00 | 0.00 | 50 | 1009.6 |
| 20260507203008 | 62 | 219 | 3.0 | 15.0 | 0.00 | 0.00 | 0.00 | 48 | 1009.6 |
| 20260507202008 | 60 | 248 | 4.0 | 12.0 | 0.00 | 0.00 | 0.00 | 51 | 1009.6 |
| 20260507201509 | 60 | 254 | 3.0 | 10.0 | 0.00 | 0.00 | 0.00 | 51 | 1009.6 |
| 20260507200506 | 60 | 200 | 4.0 | 13.0 | 0.00 | 0.00 | 0.00 | 49 | 1009.9 |
| 20260507200010 | 60 | 306 | 4.0 | 14.0 | 0.00 | 0.00 | 0.00 | 52 | 1010.0 |
| 20260507195510 | 59 | 238 | 4.0 | 14.0 | 0.00 | 0.00 | 0.00 | 49 | 1010.2 |
| 20260507195006 | 60 | 198 | 4.0 | 14.0 | 0.00 | 0.00 | 0.00 | 48 | 1010.3 |
| 20260507194005 | 60 | 224 | 4.0 | 11.0 | 0.00 | 0.00 | 0.00 | 52 | 1010.6 |
| 20260507193007 | 59 | 236 | 3.0 | 10.0 | 0.00 | 0.00 | 0.00 | 51 | 1010.7 |
| 20260507192505 | 59 | 281 | 3.0 | 13.0 | 0.00 | 0.00 | 0.00 | 51 | 1010.9 |
| 20260507191506 | 58 | 251 | 5.0 | 11.0 | 0.00 | 0.00 | 0.00 | 52 | 1011.0 |
| 20260507191005 | 59 | 225 | 4.0 | 11.0 | 0.00 | 0.00 | 0.00 | 49 | 1011.0 |
| 20260507190507 | 59 | 200 | 3.0 | 9.0 | 0.00 | 0.00 | 0.00 | 49 | 1011.1 |
| 20260507190010 | 58 | 229 | 3.0 | 12.0 | 0.00 | 0.00 | 0.00 | 51 | 1011.1 |
| 20260507185504 | 58 | 198 | 4.0 | 12.0 | 0.00 | 0.00 | 0.00 | 48 | 1011.2 |
| 20260507184507 | 58 | 234 | 3.0 | 13.0 | 0.00 | 0.00 | 0.00 | 44 | 1011.3 |
| 20260507184005 | 58 | 220 | 2.0 | 8.0 | 0.00 | 0.00 | 0.00 | 45 | 1011.5 |
| 20260507183506 | 58 | 198 | 3.0 | 9.0 | 0.00 | 0.00 | 0.00 | 43 | 1011.4 |
| 20260507183007 | 57 | 282 | 4.0 | 10.0 | 0.00 | 0.00 | 0.00 | 45 | 1011.3 |
| 20260507182008 | 58 | 217 | 4.0 | 11.0 | 0.00 | 0.00 | 0.00 | 43 | 1011.4 |
| 20260507181506 | 58 | 200 | 4.0 | 11.0 | 0.00 | 0.00 | 0.00 | 43 | 1011.5 |
| 20260507181007 | 58 | 239 | 4.0 | 11.0 | 0.00 | 0.00 | 0.00 | 43 | 1011.5 |
| 20260507180009 | 58 | 240 | 3.0 | 10.0 | 0.00 | 0.00 | 0.00 | 42 | 1011.6 |
| 20260507175505 | 58 | 221 | 3.0 | 8.0 | 0.00 | 0.00 | 0.00 | 40 | 1011.7 |
| 20260507175008 | 58 | 182 | 2.0 | 9.0 | 0.00 | 0.00 | 0.00 | 40 | 1011.7 |
| 20260507174505 | 58 | 216 | 3.0 | 13.0 | 0.00 | 0.00 | 0.00 | 43 | 1011.8 |
| 20260507174008 | 58 | 230 | 2.0 | 13.0 | 0.00 | 0.00 | 0.00 | 43 | 1011.9 |
| 20260507173505 | 58 | 282 | 2.0 | 9.0 | 0.00 | 0.00 | 0.00 | 40 | 1012.1 |
| 20260507172506 | 57 | 224 | 2.0 | 10.0 | 0.00 | 0.00 | 0.00 | 41 | 1012.1 |
| 20260507172007 | 56 | 213 | 2.0 | 8.0 | 0.00 | 0.00 | 0.00 | 43 | 1012.3 |
| 20260507171507 | 57 | 211 | 2.0 | 8.0 | 0.00 | 0.00 | 0.00 | 41 | 1012.5 |
| 20260507170506 | 57 | 267 | 3.0 | 9.0 | 0.00 | 0.00 | 0.00 | 42 | 1012.7 |
| 20260507170009 | 57 | 215 | 2.0 | 8.0 | 0.00 | 0.00 | 0.00 | 38 | 1012.8 |
| 20260507165506 | 57 | 241 | 1.0 | 7.0 | 0.00 | 0.00 | 0.00 | 45 | 1012.7 |
| 20260507164505 | 57 | 216 | 1.0 | 5.0 | 0.00 | 0.00 | 0.00 | 43 | 1012.8 |
| 20260507163505 | 56 | 207 | 1.0 | 7.0 | 0.00 | 0.00 | 0.00 | 42 | 1013.1 |
| 20260507162507 | 56 | 225 | 2.0 | 7.0 | 0.00 | 0.00 | 0.00 | 43 | 1013.3 |
| 20260507162008 | 56 | 222 | 2.0 | 5.0 | 0.00 | 0.00 | 0.00 | 43 | 1013.4 |
| 20260507161009 | 55 | 245 | 2.0 | 7.0 | 0.00 | 0.00 | 0.00 | 45 | 1013.5 |
| 20260507160505 | 55 | 236 | 2.0 | 7.0 | 0.00 | 0.00 | 0.00 | 42 | 1013.7 |
| 20260507160007 | 55 | 205 | 2.0 | 6.0 | 0.00 | 0.00 | 0.00 | 43 | 1013.9 |
| 20260507155505 | 55 | 218 | 1.0 | 5.0 | 0.00 | 0.00 | 0.00 | 41 | 1013.9 |
| 20260507155007 | 55 | 271 | 1.0 | 3.0 | 0.00 | 0.00 | 0.00 | 44 | 1013.9 |
| 20260507154507 | 55 | 259 | 1.0 | 7.0 | 0.00 | 0.00 | 0.00 | 45 | 1013.9 |
| 20260507154009 | 54 | 278 | 1.0 | 7.0 | 0.00 | 0.00 | 0.00 | 44 | 1014.0 |